Barcelona, Spain

9:53 AM CEST en Agosto 17, 2018 (GMT +0200)
El Prat

Tiempo Historia de LEBL - Agosto, 2018

Change the Weather History Date:

Viernes, Agosto 10, 2018

  Actual Average Record
Temperature  
Temperatura media 78 ° F -  
Temperatura máxima 84 ° F 78 ° F 91 ° F (2003)
Temperatura mínima 71 ° F 66 ° F 59 ° F (2002)
Cooling Degree Days 12    
Growing Degree Days 28 (Base 50)    
Moisture  
Punto de rocío 63 ° F    
Average Humidity 63    
Maximum Humidity 83    
Minimum Humidity 33    
Precipitación  
Precipitación 0.00 pul 0.09 pul - ()
Presión al nivel del mar  
Presión al nivel del mar 30.18 pul    
Viento  
Velocidad del viento 8 mph ()    
Velocidad máxima del viento 13 mph    
Max Gust Speed 17 mph    
Visibilidad 10.0 Millas    
Eventos Lluvia    
Averages and records for this station are not official NWS values.
T = Trace of Precipitation, MM = Missing Value Source: Averaged Metar Reports

Daily Weather History Graph

Daily Weather History Graph

Search for Another Location

Airport or City:

Astronomía

Aug. 10, 2018 Salida Puesta
Hora real 6:55 AM CEST 8:57 PM CEST
Crepúsculo civil 6:25 AM CEST 9:27 PM CEST
Crepúsculo náutico 5:48 AM CEST 10:04 PM CEST
Crepúsculo astronómico 5:08 AM CEST 10:44 PM CEST
Luna 5:31 AM CEST (8/10) 8:27 PM CEST (8/10)
Horas de luz 15h 02m
Horas de luz
14h 02m
Creciente menguante, 2% of the Moon is Illuminated
Ago 10
Creciente menguante
Ago 11
Nueva
Ago 18
Cuarto creciente
Ago 26
Luna llena
Sep 3
Cuarto menguante

Hourly Weather History & Observations

Hora (CEST) Temp. Índice de calor Punto de rocío Humedad Presión Visibilidad Wind Dir Velocidad del viento Velocidad de ráfagas Precip Eventos Condiciones
12:00 AM 75.2 ° F - 64.4 ° F 69% 30.09 pul 6.2 mi ENE 12.7 mph - N/A   Nubes dispersas
12:30 AM 75.2 ° F - 64.4 ° F 69% 30.12 pul 6.2 mi ENE 12.7 mph - N/A   Nubes dispersas
1:00 AM 76 ° F - 64 ° F 57% 30.13 pul 17 mi ENE 12.7 mph - - Lluvia Llovizna débil
1:00 AM 75.2 ° F - 64.4 ° F 69% 30.12 pul 6.2 mi NE 12.7 mph - N/A   Llovizna débil
1:30 AM 73.4 ° F - 66.2 ° F 78% 30.12 pul 6.2 mi ENE 9.2 mph - N/A   Llovizna débil
2:00 AM 74 ° F - 65 ° F 67% 30.14 pul 16 mi NE 5.8 mph - -   Parcialmente nublado
2:00 AM 73.4 ° F - 66.2 ° F 78% 30.12 pul 6.2 mi ENE 10.4 mph - N/A   Nubes dispersas
2:30 AM 71.6 ° F - 64.4 ° F 78% 30.15 pul 6.2 mi NNO 3.5 mph - N/A   Nubes dispersas
3:00 AM 73 ° F - 64 ° F 67% 30.15 pul 19 mi Norte 4.6 mph - -  
3:00 AM 71.6 ° F - 64.4 ° F 78% 30.15 pul 6.2 mi ONO 3.5 mph - N/A   Nubes dispersas
3:30 AM 71.6 ° F - 64.4 ° F 78% 30.15 pul 6.2 mi NNO 6.9 mph - N/A   Parcialmente nublado
4:00 AM 72 ° F - 64 ° F 69% 30.16 pul 19 mi Norte 9.2 mph - -  
4:00 AM 71.6 ° F - 64.4 ° F 78% 30.15 pul 6.2 mi NNO 5.8 mph - N/A   Parcialmente nublado
4:30 AM 71.6 ° F - 64.4 ° F 78% 30.15 pul 6.2 mi NO 4.6 mph - N/A   Parcialmente nublado
5:00 AM 71.6 ° F - 62.6 ° F 73% 30.15 pul 6.2 mi NO 5.8 mph - N/A   Parcialmente nublado
5:30 AM 71.6 ° F - 64.4 ° F 78% 30.15 pul 6.2 mi NNO 6.9 mph - N/A   Nubes dispersas
6:00 AM 73 ° F - 64 ° F 65% 30.17 pul 19 mi Norte 9.2 mph - -  
6:00 AM 71.6 ° F - 64.4 ° F 78% 30.15 pul 6.2 mi NO 5.8 mph - N/A   Nubes dispersas
6:30 AM 71.6 ° F - 64.4 ° F 78% 30.15 pul 6.2 mi NNO 4.6 mph - N/A   Nubes dispersas
7:00 AM 72 ° F - 65 ° F 71% 30.19 pul 19 mi Norte 6.9 mph - -  
7:00 AM 71.6 ° F - 64.4 ° F 78% 30.18 pul 6.2 mi NO 5.8 mph - N/A   Muy nublado
7:30 AM 71.6 ° F - 64.4 ° F 78% 30.18 pul 6.2 mi NNO 6.9 mph - N/A   Muy nublado
8:00 AM 73 ° F - 65 ° F 68% 30.19 pul 19 mi Norte 8.1 mph - -   Parcialmente nublado
8:00 AM 71.6 ° F - 66.2 ° F 83% 30.18 pul 6.2 mi NO 8.1 mph - N/A   Nubes dispersas
8:30 AM 73.4 ° F - 64.4 ° F 73% 30.18 pul 6.2 mi NNO 5.8 mph - N/A   Nubes dispersas
9:00 AM 74 ° F - 65 ° F 65% 30.20 pul 17 mi Norte 8.1 mph - -  
9:00 AM 73.4 ° F - 64.4 ° F 73% 30.18 pul 6.2 mi NO 5.8 mph 17.3 mph N/A   Nubes dispersas
9:30 AM 75.2 ° F - 64.4 ° F 69% 30.21 pul 6.2 mi NO 9.2 mph - N/A   Nubes dispersas
10:00 AM 78 ° F - 64 ° F 53% 30.21 pul 19 mi Norte 10.4 mph - -  
10:00 AM 75.2 ° F - 64.4 ° F 69% 30.18 pul 6.2 mi NO 10.4 mph - N/A   Muy nublado
10:30 AM 78.8 ° F - 62.6 ° F 57% 30.21 pul 6.2 mi Norte 5.8 mph - N/A   Muy nublado
11:00 AM 80.6 ° F 81.8 ° F 62.6 ° F 54% 30.21 pul 6.2 mi ESE 6.9 mph - N/A   Parcialmente nublado
11:30 AM 78.8 ° F - 64.4 ° F 61% 30.21 pul 6.2 mi ESE 9.2 mph - N/A   Parcialmente nublado
12:00 PM 82.4 ° F 82.9 ° F 60.8 ° F 48% 30.21 pul 6.2 mi ESE 8.1 mph - N/A   Muy nublado
12:30 PM 80.6 ° F 81.1 ° F 59.0 ° F 48% 30.21 pul 6.2 mi ESE 6.9 mph - N/A   Nubes dispersas
1:00 PM 83 ° F - 59 ° F 33% 30.22 pul 19 mi SSE 9.2 mph - -  
1:00 PM 80.6 ° F 81.5 ° F 60.8 ° F 51% 30.21 pul 6.2 mi SE 9.2 mph - N/A   Muy nublado
1:30 PM 80.6 ° F 81.1 ° F 59.0 ° F 48% 30.21 pul 6.2 mi ESE 10.4 mph - N/A   Nubes dispersas
2:00 PM 82 ° F - 59 ° F 35% 30.23 pul 19 mi SE 12.7 mph - -   Nubes dispersas
2:00 PM 80.6 ° F 81.1 ° F 59.0 ° F 48% 30.21 pul 6.2 mi ESE 12.7 mph - N/A   Parcialmente nublado
2:30 PM 80.6 ° F 81.8 ° F 62.6 ° F 54% 30.21 pul 6.2 mi ESE 12.7 mph - N/A   Parcialmente nublado
3:00 PM 81 ° F - 61 ° F 40% 30.24 pul 19 mi ESE 12.7 mph - -  
3:00 PM 80.6 ° F 81.8 ° F 62.6 ° F 54% 30.21 pul 6.2 mi ESE 12.7 mph - N/A   Parcialmente nublado
3:30 PM 78.8 ° F - 60.8 ° F 54% 30.21 pul 6.2 mi ESE 11.5 mph - N/A   Parcialmente nublado
4:00 PM 82 ° F - 60 ° F 38% 30.23 pul 19 mi ESE 11.5 mph - -  
4:00 PM 80.6 ° F 81.8 ° F 62.6 ° F 54% 30.21 pul 6.2 mi ESE 11.5 mph - N/A   Parcialmente nublado
4:30 PM 78.8 ° F - 62.6 ° F 57% 30.21 pul 6.2 mi Este 11.5 mph - N/A   Parcialmente nublado
5:00 PM 82 ° F - 61 ° F 39% 30.21 pul 19 mi ESE 12.7 mph - -   Nubes dispersas
5:00 PM 80.6 ° F 81.8 ° F 62.6 ° F 54% 30.21 pul 6.2 mi Este 12.7 mph - N/A   Parcialmente nublado
5:30 PM 78.8 ° F - 62.6 ° F 57% 30.18 pul 6.2 mi Este 11.5 mph - N/A   Parcialmente nublado
6:00 PM 78.8 ° F - 62.6 ° F 57% 30.18 pul 6.2 mi Este 10.4 mph - N/A   Parcialmente nublado
6:30 PM 78.8 ° F - 62.6 ° F 57% 30.18 pul 6.2 mi Este 10.4 mph - N/A   Parcialmente nublado
7:00 PM 80 ° F - 63 ° F 47% 30.19 pul 19 mi SE 10.4 mph - -  
7:00 PM 78.8 ° F - 64.4 ° F 61% 30.18 pul 6.2 mi ESE 10.4 mph - N/A   Parcialmente nublado
7:30 PM 78.8 ° F - 64.4 ° F 61% 30.18 pul - ESE 8.1 mph - N/A   Despejado
8:00 PM 79 ° F - 64 ° F 50% 30.18 pul 19 mi ESE 8.1 mph - -   Nubes dispersas
8:00 PM 77.0 ° F - 64.4 ° F 65% 30.18 pul - Este 6.9 mph - N/A   Despejado
8:30 PM 77.0 ° F - 64.4 ° F 65% 30.18 pul - Este 6.9 mph - N/A   Despejado
9:00 PM 77 ° F - 64 ° F 55% 30.19 pul 19 mi Este 6.9 mph - -  
9:00 PM 77.0 ° F - 64.4 ° F 65% 30.18 pul - Este 4.6 mph - N/A   Despejado
9:30 PM 77.0 ° F - 64.4 ° F 65% 30.18 pul - Este 3.5 mph - N/A   Despejado
10:00 PM 77.0 ° F - 64.4 ° F 65% 30.21 pul - Este 3.5 mph - N/A   Despejado
10:30 PM 77.0 ° F - 64.4 ° F 65% 30.21 pul - Variable 1.2 mph - N/A   Despejado
11:00 PM 77.0 ° F - 66.2 ° F 69% 30.21 pul - Sin viento Sin viento - N/A   Despejado
11:30 PM 77.0 ° F - 66.2 ° F 69% 30.21 pul - Sin viento Sin viento - N/A   Despejado